2022/12/23 00:00:00,36.4,-5.6
2022/12/23 00:10:00,36.7,-6.1
2022/12/23 00:20:00,36.6,-5.8
2022/12/23 00:30:00,36.9,-6.1
2022/12/23 00:40:00,37.9,-5.9
2022/12/23 00:50:00,38.7,-6.3
2022/12/23 01:00:00,39.4,-6.3
2022/12/23 01:10:00,39.6,-6.2
2022/12/23 01:20:00,40.1,-6.3
2022/12/23 01:30:00,41.0,-6.3
2022/12/23 01:40:00,41.4,-6.3
2022/12/23 01:50:00,42.2,-6.1
2022/12/23 02:00:00,42.5,-6.4
2022/12/23 02:10:00,42.4,-6.3
2022/12/23 02:20:00,42.5,-6.3
2022/12/23 02:30:00,42.6,-6.3
2022/12/23 02:40:00,43.2,-6.1
2022/12/23 02:50:00,43.6,-6.3
2022/12/23 03:00:00,43.6,-6.7
2022/12/23 03:10:00,43.9,-6.6
2022/12/23 03:20:00,44.5,-6.4
2022/12/23 03:30:00,45.3,-6.6
2022/12/23 03:40:00,45.8,-6.6
2022/12/23 03:50:00,46.3,-6.5
2022/12/23 04:00:00,46.8,-6.4
2022/12/23 04:10:00,48.6,-6.2
2022/12/23 04:20:00,49.9,-6.4
2022/12/23 04:30:00,50.0,-6.4
2022/12/23 04:40:00,49.7,-6.5
2022/12/23 04:50:00,49.5,-6.3
2022/12/23 05:00:00,50.0,-6.3
2022/12/23 05:10:00,50.4,-6.5
2022/12/23 05:20:00,50.7,-6.4
2022/12/23 05:30:00,51.2,-6.5
2022/12/23 05:40:00,51.3,-6.7
2022/12/23 05:50:00,51.4,-6.5
2022/12/23 06:00:00,51.3,-6.7
2022/12/23 06:10:00,51.6,-6.5
2022/12/23 06:20:00,51.6,-6.7
2022/12/23 06:30:00,51.5,-6.7
2022/12/23 06:40:00,51.8,-6.6
2022/12/23 06:50:00,52.2,-6.5
2022/12/23 07:00:00,52.5,-7.3
2022/12/23 07:10:00,53.2,-6.7
2022/12/23 07:20:00,54.2,-6.5
2022/12/23 07:30:00,54.9,-6.7
2022/12/23 07:40:00,55.3,-6.8
2022/12/23 07:50:00,55.3,-6.5
2022/12/23 08:00:00,55.7,-6.6
2022/12/23 08:10:00,56.1,-6.7
2022/12/23 08:20:00,55.8,-6.4
2022/12/23 08:30:00,55.9,-6.5
2022/12/23 08:40:00,55.8,-6.3
2022/12/23 08:50:00,56.1,-6.4
2022/12/23 09:00:00,56.5,-6.5
2022/12/23 09:10:00,56.4,-6.2
2022/12/23 09:20:00,56.4,-6.1
2022/12/23 09:30:00,56.5,-6.2
2022/12/23 09:40:00,56.5,-6.1
2022/12/23 09:50:00,56.4,-6.1
2022/12/23 10:00:00,56.6,-6.2
2022/12/23 10:10:00,56.8,-6.2
2022/12/23 10:20:00,57.1,-6.3
2022/12/23 10:30:00,57.2,-6.0
2022/12/23 10:40:00,57.2,-5.9
2022/12/23 10:50:00,57.0,-6.0
2022/12/23 11:00:00,57.1,-5.9
2022/12/23 11:10:00,58.0,-6.1
2022/12/23 11:20:00,58.3,-6.0
2022/12/23 11:30:00,58.6,-6.0
2022/12/23 11:40:00,59.7,-6.1
2022/12/23 11:50:00,60.8,-6.5
2022/12/23 12:00:00,61.9,-6.3
2022/12/23 12:10:00,63.3,-6.0
2022/12/23 12:20:00,64.1,-6.1
2022/12/23 12:30:00,64.3,-5.4
2022/12/23 12:40:00,64.4,-4.7
2022/12/23 12:50:00,64.4,-4.8
2022/12/23 13:00:00,64.0,-5.5
2022/12/23 13:10:00,64.0,-4.9
2022/12/23 13:20:00,63.9,-5.2
2022/12/23 13:30:00,63.7,-5.5
2022/12/23 13:40:00,64.0,-5.6
2022/12/23 13:50:00,64.6,-5.7
2022/12/23 14:00:00,64.9,-5.6
2022/12/23 14:10:00,65.1,-5.9
2022/12/23 14:20:00,65.1,-5.3
2022/12/23 14:30:00,65.3,-5.6
2022/12/23 14:40:00,65.9,-5.9
2022/12/23 14:50:00,66.4,-6.0
2022/12/23 15:00:00,66.7,-5.6
2022/12/23 15:10:00,67.3,-5.7
2022/12/23 15:20:00,68.0,-6.0
2022/12/23 15:30:00,68.9,-5.8
2022/12/23 15:40:00,69.7,-5.8
2022/12/23 15:50:00,70.4,-5.9
2022/12/23 16:00:00,70.6,-6.0
2022/12/23 16:10:00,70.7,-5.6
2022/12/23 16:20:00,70.8,-5.8
2022/12/23 16:30:00,70.9,-6.0
2022/12/23 16:40:00,71.2,-6.0
2022/12/23 16:50:00,71.4,-6.1
2022/12/23 17:00:00,71.6,-6.0
2022/12/23 17:10:00,71.5,-5.9
2022/12/23 17:20:00,71.4,-5.9
2022/12/23 17:30:00,72.0,-5.9
2022/12/23 17:40:00,72.5,-6.2
2022/12/23 17:50:00,72.6,-5.8
2022/12/23 18:00:00,72.8,-5.9
2022/12/23 18:10:00,72.8,-6.3
2022/12/23 18:20:00,73.0,-5.8
2022/12/23 18:30:00,73.0,-5.7
2022/12/23 18:40:00,72.8,-5.6
2022/12/23 18:50:00,73.1,-5.4
2022/12/23 19:00:00,73.3,-5.4
2022/12/23 19:10:00,73.5,-5.4
2022/12/23 19:20:00,73.9,-5.6
2022/12/23 19:30:00,73.7,-5.4
2022/12/23 19:40:00,74.0,-5.3
2022/12/23 19:50:00,74.4,-5.3
2022/12/23 20:00:00,74.9,-5.6
2022/12/23 20:10:00,75.9,-5.5
2022/12/23 20:20:00,76.1,-5.2
2022/12/23 20:30:00,75.8,-5.2
2022/12/23 20:40:00,75.7,-5.1
2022/12/23 20:50:00,75.8,-5.1
2022/12/23 21:00:00,76.9,-5.1
2022/12/23 21:10:00,78.0,-5.1
2022/12/23 21:20:00,78.3,-4.9
2022/12/23 21:30:00,78.7,-5.0
2022/12/23 21:40:00,78.8,-4.9
2022/12/23 21:50:00,79.7,-5.0
2022/12/23 22:00:00,80.0,-4.8
2022/12/23 22:10:00,80.4,-4.9
2022/12/23 22:20:00,80.6,-4.8
2022/12/23 22:30:00,80.8,-4.8
2022/12/23 22:40:00,81.7,-4.7
2022/12/23 22:50:00,83.5,-4.9
2022/12/23 23:00:00,83.6,-4.9
2022/12/23 23:10:00,83.7,-4.9
2022/12/23 23:20:00,84.2,-4.8
2022/12/23 23:30:00,84.6,-4.9
2022/12/23 23:40:00,85.6,-4.8
2022/12/23 23:50:00,86.3,-4.9
